Showing default

APRIZESAT 10, 40019

Orbit data source: Space-Track

APRIZESAT 10, 40019 is a payload satellite owned by SpaceQuest (US) in SSO that was launched on Thu, 19 Jun 2014 UTC via a DNEPR launch vehicle from the Orenburg, Russia (OREN). Payload-class satellites include a variety of spacecraft equipped with specific instruments for various scientific and technological missions. These include communications satellites like Starlink; space stations such as the ISS; scientific satellites like the Hubble; Earth observation satellites from companies like Planet Labs, Umbra, and HawkEye 360; GPS; miniature CubeSats for education and research; and military/defense satellites.

Loading next visibility...
Identifier
40019, 2014-033K
Orbit
SSO
Country
Flag of USUS
Related business
Manufacturer
SpaceQuest
Mission
Operational Commercial Communications
Bus & Motor
APRIZE, Unknown motor
Mass
14 kg wet, 14 kg dry
Launch date (UTC)
2014-06-19 (12 years ago)
Launch vehicle
DNEPR
Launch site
Orenburg, Russia (OREN)
Object type
Payload
Rocket body
Debris
Shape & HBR
Box + 1 Ant, 0.1 m
Radar Cross Section
0.060 m², Medium (>0.1 m² and < 1m²)

Expand to show TLE details & history
Last TLE update: 2 days ago

TLE from 2 days ago
0 APRIZESAT 10
1 40019U 14033K   26171.32393782  .00000346  00000-0  62405-4 0  9993
2 40019  97.9654 298.2134 0077423 263.6442  95.5943 14.70884779642715
Epoch: 2026-06-20T07:46Z
TLE epoch observation values (Epoch: 2026-06-20T07:46:28.227Z)
Latitude
-0.00005°
Longitude
-86.94441°
Altitude
666.981 km
Speed
7.521 km/s
True Right ascension
19h 52m 51s
True Declination
0° 00' 00"
Sunlit
Object was in full shadow at epoch
Visualization orbit readout
Latitude
Unknown
Longitude
Unknown
Altitude
Unknown
Speed
Unknown
Apparent Right ascension
Unknown
Apparent Declination
Unknown
Sunlit
N/A
Visualization observer readout
Local Sidereal Time
21:42:12
Azimuth
Unknown
Elevation
Unknown
Doppler factor
Unknown
Orbital elements
Apogee altitude
709.756 km
Perigee altitude
600.846 km
Semi-major axis
7,033.438 km
Eccentricity
0.00774
Inclination
97.9654°
RAAN
298.2134°
Arg. of periapsis
263.6442°
True anomaly
96.47641°
Mean anomaly
95.5943°
Eccentric anomaly
96.03544°
Mean motion
3.67952 °/min
Orbital period
97.84 mins
BSTAR
0.000062405
Loading maneuver chart data...
Computing Atmospheric mass density...
Loading historical data...
Loading historical data...
Loading historical data...
Loading historical data...
Loading historical data...
Loading historical data...
Loading historical data...

Documentation

Showing up to 5 results
|